Hourly Weather Nanjing

Today, 15 July, Wednesday

Time Temperature Precipitation Wind Pressure Humidity
00:00 +24°C° 2.7 mm 1 mps 752 mmHg 95%
01:00 +24°C° 2.7 mm 1 mps 752 mmHg 96%
02:00 +24°C° 0 mm 1 mps 752 mmHg 97%
03:00 +23°C° 7.1 mm 2 mps 752 mmHg 96%
04:00 +22°C° 7.1 mm 4 mps 752 mmHg 96%
05:00 +21°C° 7.1 mm 5 mps 752 mmHg 95%
06:00 +21°C° 3.3 mm 4 mps 752 mmHg 95%
07:00 +21°C° 3.3 mm 3 mps 752 mmHg 95%
08:00 +20°C° 3.3 mm 2 mps 752 mmHg 95%
09:00 +21°C° 0.7 mm 2 mps 752 mmHg 94%
10:00 +21°C° 0.7 mm 2 mps 753 mmHg 93%
11:00 +23°C° 0.7 mm 2 mps 753 mmHg 92%
12:00 +23°C° 0.2 mm 2 mps 752 mmHg 91%
13:00 +23°C° 0.2 mm 2 mps 752 mmHg 90%
14:00 +23°C° 0.2 mm 2 mps 752 mmHg 90%
15:00 +24°C° 0 mm 2 mps 752 mmHg 88%
16:00 +24°C° 0 mm 3 mps 752 mmHg 86%
17:00 +25°C° 0 mm 3 mps 752 mmHg 84%
18:00 +24°C° 0 mm 2 mps 751 mmHg 86%
19:00 +23°C° 0 mm 2 mps 751 mmHg 89%
20:00 +23°C° 0 mm 2 mps 751 mmHg 91%
21:00 +21°C° 0 mm 2 mps 751 mmHg 92%
22:00 +21°C° 0 mm 2 mps 752 mmHg 92%
23:00 +21°C° 0 mm 2 mps 752 mmHg 93%

Tomorrow, 16 July, Thursday

Time Temperature Precipitation Wind Pressure Humidity
00:00 +21°C° 0 mm 2 mps 752 mmHg 93%
01:00 +21°C° 0 mm 2 mps 751 mmHg 93%
02:00 +21°C° 0 mm 2 mps 751 mmHg 94%
03:00 +21°C° 0 mm 2 mps 751 mmHg 94%
04:00 +21°C° 0 mm 2 mps 751 mmHg 94%
05:00 +20°C° 0 mm 2 mps 751 mmHg 95%
06:00 +21°C° 0 mm 3 mps 751 mmHg 92%
07:00 +22°C° 0 mm 3 mps 751 mmHg 89%
08:00 +24°C° 0 mm 3 mps 751 mmHg 86%
09:00 +25°C° 0 mm 4 mps 752 mmHg 83%
10:00 +27°C° 0 mm 4 mps 752 mmHg 79%
11:00 +28°C° 0 mm 4 mps 752 mmHg 75%
12:00 +28°C° 0 mm 4 mps 751 mmHg 75%
13:00 +28°C° 0 mm 5 mps 751 mmHg 74%
14:00 +28°C° 0 mm 5 mps 751 mmHg 74%
15:00 +27°C° 0 mm 4 mps 750 mmHg 77%
16:00 +26°C° 0 mm 4 mps 750 mmHg 79%
17:00 +26°C° 0 mm 3 mps 750 mmHg 82%
18:00 +25°C° 0 mm 3 mps 750 mmHg 83%
19:00 +24°C° 0 mm 3 mps 750 mmHg 84%
20:00 +24°C° 0 mm 2 mps 751 mmHg 85%
21:00 +24°C° 0 mm 3 mps 751 mmHg 85%
22:00 +24°C° 0 mm 3 mps 751 mmHg 85%
23:00 +22°C° 0 mm 3 mps 751 mmHg 86%

Day after tomorrow, 17 July, Friday

Time Temperature Precipitation Wind Pressure Humidity
00:00 +22°C° 0.2 mm 3 mps 751 mmHg 87%
01:00 +22°C° 0.2 mm 3 mps 750 mmHg 88%
02:00 +22°C° 0.2 mm 3 mps 750 mmHg 89%
03:00 +22°C° 1 mm 3 mps 750 mmHg 91%
04:00 +22°C° 1 mm 3 mps 750 mmHg 93%
05:00 +22°C° 1 mm 3 mps 750 mmHg 95%
06:00 +22°C° 2.8 mm 3 mps 750 mmHg 95%
07:00 +24°C° 2.8 mm 3 mps 750 mmHg 96%
08:00 +24°C° 2.8 mm 3 mps 750 mmHg 97%
09:00 +24°C° 4.7 mm 3 mps 750 mmHg 97%
10:00 +25°C° 4.7 mm 3 mps 750 mmHg 97%
11:00 +25°C° 4.7 mm 4 mps 750 mmHg 96%
12:00 +25°C° 1.7 mm 4 mps 750 mmHg 96%
13:00 +25°C° 1.7 mm 4 mps 749 mmHg 96%
14:00 +25°C° 1.7 mm 4 mps 749 mmHg 96%
15:00 +25°C° 1.7 mm 4 mps 749 mmHg 96%
16:00 +25°C° 1.7 mm 4 mps 749 mmHg 95%
17:00 +25°C° 1.7 mm 4 mps 749 mmHg 95%
18:00 +25°C° 0.3 mm 4 mps 749 mmHg 95%
19:00 +25°C° 0.3 mm 4 mps 749 mmHg 95%
20:00 +25°C° 0.3 mm 4 mps 749 mmHg 95%
21:00 +25°C° 0.8 mm 4 mps 749 mmHg 95%
22:00 +25°C° 0.8 mm 5 mps 750 mmHg 96%
23:00 +25°C° 0.8 mm 5 mps 750 mmHg 96%

18 July, Saturday

Time Temperature Precipitation Wind Pressure Humidity
00:00 +25°C° 0.6 mm 4 mps 749 mmHg 96%
01:00 +25°C° 0.6 mm 4 mps 749 mmHg 96%
02:00 +25°C° 0.6 mm 4 mps 748 mmHg 96%
03:00 +25°C° 0.4 mm 4 mps 748 mmHg 96%
04:00 +25°C° 0.4 mm 4 mps 748 mmHg 95%
05:00 +25°C° 0.4 mm 4 mps 748 mmHg 95%
06:00 +25°C° 3.8 mm 4 mps 748 mmHg 95%
07:00 +25°C° 3.8 mm 5 mps 748 mmHg 95%
08:00 +25°C° 3.8 mm 5 mps 748 mmHg 95%
09:00 +24°C° 3.3 mm 6 mps 748 mmHg 94%
10:00 +26°C° 3.3 mm 6 mps 748 mmHg 94%
11:00 +26°C° 3.3 mm 7 mps 747 mmHg 93%
12:00 +26°C° 0.4 mm 6 mps 747 mmHg 93%
13:00 +27°C° 0.4 mm 5 mps 747 mmHg 93%
14:00 +27°C° 0.4 mm 4 mps 746 mmHg 93%
15:00 +27°C° 0.6 mm 5 mps 746 mmHg 92%
16:00 +28°C° 0.6 mm 5 mps 746 mmHg 91%
17:00 +28°C° 0.6 mm 5 mps 746 mmHg 90%
18:00 +28°C° 0.4 mm 5 mps 746 mmHg 91%
19:00 +27°C° 0.4 mm 4 mps 746 mmHg 92%
20:00 +27°C° 0.4 mm 4 mps 747 mmHg 93%
21:00 +27°C° 0 mm 4 mps 747 mmHg 94%
22:00 +26°C° 0 mm 4 mps 747 mmHg 94%
23:00 +26°C° 0 mm 3 mps 747 mmHg 95%

19 July, Sunday

Time Temperature Precipitation Wind Pressure Humidity
00:00 +26°C° 0.7 mm 3 mps 747 mmHg 96%
01:00 +26°C° 0.7 mm 3 mps 746 mmHg 96%
02:00 +25°C° 0.7 mm 2 mps 746 mmHg 97%
03:00 +25°C° 2.7 mm 2 mps 746 mmHg 97%
04:00 +26°C° 2.7 mm 3 mps 746 mmHg 98%
05:00 +26°C° 2.7 mm 3 mps 745 mmHg 98%
06:00 +26°C° 1.8 mm 2 mps 746 mmHg 98%
07:00 +26°C° 1.8 mm 2 mps 746 mmHg 97%
08:00 +26°C° 1.8 mm 2 mps 746 mmHg 97%
09:00 +26°C° 2.8 mm 2 mps 746 mmHg 96%
10:00 +26°C° 2.8 mm 2 mps 746 mmHg 95%
11:00 +26°C° 2.8 mm 2 mps 746 mmHg 94%
12:00 +27°C° 1 mm 2 mps 746 mmHg 90%
13:00 +28°C° 1 mm 2 mps 746 mmHg 86%
14:00 +29°C° 1 mm 2 mps 746 mmHg 82%
15:00 +29°C° 0 mm 2 mps 746 mmHg 82%
16:00 +29°C° 0 mm 2 mps 746 mmHg 82%
17:00 +29°C° 0 mm 2 mps 746 mmHg 83%
18:00 +28°C° 0.1 mm 3 mps 747 mmHg 85%
19:00 +27°C° 0.1 mm 3 mps 747 mmHg 87%
20:00 +27°C° 0.1 mm 3 mps 748 mmHg 90%
21:00 +26°C° 0 mm 3 mps 748 mmHg 91%
22:00 +26°C° 0 mm 3 mps 749 mmHg 92%
23:00 +26°C° 0 mm 3 mps 749 mmHg 93%

20 July, Monday

Time Temperature Precipitation Wind Pressure Humidity
00:00 +26°C° 0 mm 2 mps 749 mmHg 92%
01:00 +26°C° 0 mm 2 mps 749 mmHg 92%
02:00 +26°C° 0 mm 2 mps 749 mmHg 92%
03:00 +25°C° 0.1 mm 2 mps 749 mmHg 92%
04:00 +25°C° 0.1 mm 2 mps 749 mmHg 93%
05:00 +25°C° 0.1 mm 2 mps 749 mmHg 94%
06:00 +26°C° 0.1 mm 2 mps 750 mmHg 92%
07:00 +26°C° 0.1 mm 2 mps 751 mmHg 91%
08:00 +27°C° 0.1 mm 2 mps 751 mmHg 89%
09:00 +28°C° 0.1 mm 3 mps 751 mmHg 85%
10:00 +29°C° 0.1 mm 3 mps 751 mmHg 81%
11:00 +31°C° 0.1 mm 3 mps 752 mmHg 77%
12:00 +31°C° 0.2 mm 3 mps 751 mmHg 74%
13:00 +33°C° 0.2 mm 3 mps 751 mmHg 72%
14:00 +32°C° 0.2 mm 2 mps 751 mmHg 69%
15:00 +32°C° 0.2 mm 2 mps 751 mmHg 71%
16:00 +32°C° 0.2 mm 2 mps 751 mmHg 72%
17:00 +32°C° 0.2 mm 2 mps 751 mmHg 74%
18:00 +30°C° 0.2 mm 3 mps 751 mmHg 79%
19:00 +29°C° 0.2 mm 3 mps 752 mmHg 83%
20:00 +28°C° 0.2 mm 3 mps 752 mmHg 87%
21:00 +28°C° 0.2 mm 3 mps 752 mmHg 86%
22:00 +27°C° 0.2 mm 3 mps 753 mmHg 85%
23:00 +27°C° 0.2 mm 4 mps 753 mmHg 84%
Show more